Weather History for Lincoln, NE

Change the Weather History Date:

Saturday, January 8, 2011

  Actual Average Record
Temperature  
Mean Temperature 17 °F 24 °F  
Max Temperature 21 °F 35 °F 70 °F (2003)
Min Temperature 13 °F 14 °F -20 °F (1887)
Degree Days  
Heating Degree Days 48 41  
Month to date heating degree days 330 325  
Since 1 July heating degree days 2685 2770  
Cooling Degree Days 0 0  
Month to date cooling degree days 0 0  
Year to date cooling degree days 0 0  
Moisture  
Dew Point 8 °F    
Average Humidity 68    
Maximum Humidity 80    
Minimum Humidity 56    
Precipitation  
Precipitation T in 0.02 in 0.34 in (1937)
Month to date precipitation T 0.16  
Year to date precipitation T 0.16  
Snow  
Snow T in 0.20 in - ()
Month to date snowfall T 1.3  
Since 1 July snowfall 1.7 10.0  
Snow Depth 0.00 in    
Sea Level Pressure  
Sea Level Pressure 30.04 in    
Wind  
Wind Speed 8 mph (NE)    
Max Wind Speed 18 mph    
Max Gust Speed 24 mph    
Visibility 9 miles    
Events Snow    
T = Trace of Precipitation, MM = Missing Value Source: NWS Daily Summary

Daily Weather History Graph

Daily Weather History Graph

Search for Another Location

Airport:

Trip Planner

Search our weather history database for the weather conditions in past years. The results will help you decide how hot, cold, wet, or windy it might be!

Date:

Astronomy

Jan. 08, 2011 Rise Set
Actual Time 7:51 AM CST 5:16 PM CST
Civil Twilight 7:20 AM CST 5:46 PM CST
Nautical Twilight 6:46 AM CST 6:21 PM CST
Astronomical Twilight 6:13 AM CST 6:54 PM CST
Moon 9:58 AM CST (1/8) 9:52 PM CST (1/8)
Length of Visible Light 10h 26m
Length of Day
9h 24m
Waxing Crescent, 18% of the Moon is Illuminated
Jan 8
Waxing Crescent
Jan 12
First Quarter
Jan 19
Full
Jan 26
Last Quarter
Feb 2
New

Hourly Weather History & Observations

Time (CST) Temp. Windchill Dew Point Humidity Pressure Visibility Wind Dir Wind Speed Gust Speed Precip Events Conditions
12:54 AM 19.0 °F 5.0 °F 7.0 °F 59% 29.94 in 10.0 mi NNW 15.0 mph - N/A   Clear
1:54 AM 17.6 °F 5.0 °F 6.8 °F 63% 29.90 in 10.0 mi NNW 11.5 mph - N/A   Clear
2:46 AM 17.6 °F 8.2 °F 6.8 °F 63% 29.91 in 10.0 mi NNW 6.9 mph - N/A   Mostly Cloudy
2:54 AM 17.1 °F 5.8 °F 7.0 °F 65% 29.96 in 10.0 mi NNW 9.2 mph - N/A   Overcast
3:26 AM 15.8 °F 5.1 °F 6.8 °F 68% 29.92 in 10.0 mi NW 8.1 mph - N/A   Partly Cloudy
3:54 AM 15.1 °F 5.2 °F 7.0 °F 70% 29.97 in 10.0 mi NW 6.9 mph - N/A   Mostly Cloudy
4:54 AM 16.0 °F 5.3 °F 7.0 °F 68% 29.98 in 10.0 mi NNW 8.1 mph - N/A   Mostly Cloudy
5:54 AM 15.1 °F 7.7 °F 8.1 °F 74% 30.00 in 10.0 mi NW 4.6 mph - N/A   Overcast
6:24 AM 15.8 °F 5.1 °F 8.6 °F 73% 29.96 in 10.0 mi NNW 8.1 mph - N/A   Mostly Cloudy
6:54 AM 16.0 °F 6.3 °F 10.0 °F 77% 30.02 in 10.0 mi North 6.9 mph - N/A   Overcast
7:54 AM 17.1 °F 5.0 °F 10.9 °F 77% 30.04 in 10.0 mi North 10.4 mph - N/A   Overcast
8:54 AM 17.1 °F 5.8 °F 10.9 °F 77% 30.07 in 7.0 mi NNE 9.2 mph - N/A   Overcast
9:54 AM 18.0 °F 8.7 °F 10.9 °F 74% 30.12 in 8.0 mi NNE 6.9 mph - 0.00 in   Overcast
10:08 AM 17.6 °F 5.7 °F 10.4 °F 73% 30.06 in 9.0 mi North 10.4 mph - N/A   Overcast
10:54 AM 19.0 °F 10.0 °F 10.9 °F 71% 30.12 in 3.0 mi NE 6.9 mph - 0.00 in Snow Light Snow
11:54 AM 18.0 °F 6.9 °F 10.9 °F 74% 30.10 in 4.0 mi ENE 9.2 mph - 0.00 in Snow Light Snow
12:54 PM 19.9 °F 10.1 °F 9.0 °F 62% 30.09 in 10.0 mi ENE 8.1 mph - 0.00 in   Mostly Cloudy
1:17 PM 19.4 °F 11.5 °F 8.6 °F 63% 30.02 in 10.0 mi ENE 5.8 mph - N/A   Mostly Cloudy
1:54 PM 19.9 °F 14.9 °F 8.1 °F 60% 30.07 in 10.0 mi NNE 3.5 mph - N/A   Partly Cloudy
2:54 PM 19.9 °F 11.1 °F 8.1 °F 60% 30.07 in 10.0 mi East 6.9 mph - N/A   Clear
3:54 PM 19.9 °F 11.1 °F 8.1 °F 60% 30.06 in 10.0 mi ENE 6.9 mph - N/A   Mostly Cloudy
4:54 PM 19.9 °F 12.1 °F 9.0 °F 62% 30.07 in 10.0 mi East 5.8 mph - N/A   Overcast
5:54 PM 19.9 °F 9.3 °F 9.0 °F 62% 30.08 in 10.0 mi ESE 9.2 mph - N/A   Overcast
6:54 PM 19.9 °F 9.3 °F 8.1 °F 60% 30.10 in 10.0 mi SE 9.2 mph - N/A   Overcast
7:54 PM 19.0 °F 7.5 °F 7.0 °F 59% 30.10 in 10.0 mi ESE 10.4 mph - N/A   Overcast
8:54 PM 19.9 °F 10.1 °F 7.0 °F 57% 30.11 in 10.0 mi SE 8.1 mph - N/A   Overcast
9:54 PM 19.9 °F 9.3 °F 6.1 °F 55% 30.12 in 10.0 mi SE 9.2 mph - N/A   Overcast
10:54 PM 19.9 °F 9.3 °F 7.0 °F 57% 30.12 in 10.0 mi SE 9.2 mph - N/A   Overcast
11:54 PM 19.9 °F 8.6 °F 8.1 °F 60% 30.12 in 9.0 mi SE 10.4 mph - 0.00 in Snow Light Snow